Terminal Aerodrome Forecast
Issued by NWS Blacksburg, VA

Home | Current Version | Previous Version | Text Only | Print | Product List | Glossary On
Versions: 1 2 3 4 5 6 7 8 9 10 11 12 13 14 15 16 17 18 19 20 21 22 23 24 25 26 27 28 29 30 31 32 33 34 35 36 37 38 39 40 41 42 43 44 45 46 47 48
000
FTUS41 KRNK 060033 AAA
TAFROA
TAF AMD
KROA 060033Z 0601/0624 34008KT P6SM SCT025 OVC035
      TEMPO 0602/0604 4SM -SN BR BKN025
     FM060500 32006KT P6SM SKC
     FM061200 01002KT P6SM SKC
     FM061900 19005KT P6SM SKC=

USA.gov is the U.S. government's official web portal to all federal, state and local government web resources and services.